Showing default

PUCP-SAT 1, 39442

Orbit data source: Space-Track

PUCP-SAT 1, 39442 is a payload satellite owned by PUCP (PE) in SSO that was launched on Thu, 21 Nov 2013 UTC via a DNEPR launch vehicle from the Orenburg, Russia (OREN). Payload-class satellites include a variety of spacecraft equipped with specific instruments for various scientific and technological missions. These include communications satellites like Starlink; space stations such as the ISS; scientific satellites like the Hubble; Earth observation satellites from companies like Planet Labs, Umbra, and HawkEye 360; GPS; miniature CubeSats for education and research; and military/defense satellites.

Loading next visibility...
Identifier
39442, 2013-066AC
Orbit
SSO
Country
Flag of PEPE / PER
Related business
Manufacturer
PUCP
Mission
Non-operational Amateur Technology
Bus & Motor
CUBESAT 1U, Unknown motor
Mass
1.173 kg wet, 1.173 kg dry
Launch date (UTC)
2013-11-21 (12 years ago)
Launch vehicle
DNEPR
Launch site
Orenburg, Russia (OREN)
Object type
Payload
Rocket body
Debris
Shape & HBR
Box, 0.1 m
Radar Cross Section
0.015 m², Small (<0.1 m²)

Expand to show TLE details & history
Last TLE update: 14 hours ago

TLE from 14 hours ago
0 PUCP-SAT 1
1 39442U 13066AC  26037.43181808  .00027020  00000-0  98767-3 0  9990
2 39442  97.5760  28.9676 0018669  52.5941 307.6994 15.27893681664264
Epoch: 2026-02-06T10:21Z
TLE epoch observation values (Epoch: 2026-02-06T10:21:49.082Z)
Latitude
0.00002°
Longitude
96.94331°
Altitude
477.387 km
Speed
7.631 km/s
True Right ascension
01h 55m 52s
True Declination
0° 00' 00"
Sunlit
Object was in daylight at epoch
Visualization orbit readout
Latitude
Unknown
Longitude
Unknown
Altitude
Unknown
Speed
Unknown
Apparent Right ascension
Unknown
Apparent Declination
Unknown
Sunlit
N/A
Visualization observer readout
Local Sidereal Time
02:40:50
Azimuth
Unknown
Elevation
Unknown
Doppler factor
Unknown
Orbital elements
Apogee altitude
491.874 km
Perigee altitude
466.271 km
Semi-major axis
6,857.21 km
Eccentricity
0.00187
Inclination
97.576°
RAAN
28.9676°
Arg. of periapsis
52.5941°
True anomaly
307.52989°
Mean anomaly
307.6994°
Eccentric anomaly
307.61467°
Mean motion
3.82228 °/min
Orbital period
94.18 mins
BSTAR
0.00098767
Loading maneuver chart data...
Computing Atmospheric mass density...
Loading historical data...
Loading historical data...
Loading historical data...
Loading historical data...
Loading historical data...
Loading historical data...
Loading historical data...

Documentation

Showing up to 5 results
|